• în România
  • Lista ţărilor
  • Pe 7 zile
  • Temperatura apei
  • Hartă satelitară
  • Meteo pe hartă
  • Widget-uri
  • user-avatar
    Intrare

    Meteo pe oră la Starina

    Astăzi, 21 Aprilie, Sâmbătă

    Timp Temperatura Precipitaţii Vânt Presiune Umiditate
    00:00 +9°C° 0 mm 3 m/s 739 mmHg 81%
    01:00 +10°C° 0 mm 3 m/s 738 mmHg 85%
    02:00 +10°C° 0 mm 3 m/s 738 mmHg 90%
    03:00 +8°C° 0 mm 4 m/s 737 mmHg 91%
    04:00 +8°C° 0 mm 4 m/s 736 mmHg 92%
    05:00 +8°C° 0 mm 4 m/s 735 mmHg 93%
    06:00 +10°C° 0 mm 4 m/s 734 mmHg 87%
    07:00 +10°C° 0 mm 5 m/s 733 mmHg 80%
    08:00 +12°C° 0 mm 5 m/s 732 mmHg 74%
    09:00 +13°C° 0 mm 6 m/s 731 mmHg 72%
    10:00 +14°C° 0 mm 6 m/s 730 mmHg 70%
    11:00 +15°C° 0 mm 6 m/s 729 mmHg 67%
    12:00 +15°C° 0,6 mm 7 m/s 728 mmHg 65%
    13:00 +15°C° 0,6 mm 8 m/s 728 mmHg 62%
    14:00 +16°C° 0,6 mm 9 m/s 728 mmHg 59%
    15:00 +13°C° 0,1 mm 9 m/s 728 mmHg 59%
    16:00 +11°C° 0,1 mm 8 m/s 729 mmHg 59%
    17:00 +10°C° 0,1 mm 8 m/s 729 mmHg 59%
    18:00 +9°C° 0 mm 7 m/s 730 mmHg 62%
    19:00 +8°C° 0 mm 7 m/s 731 mmHg 65%
    20:00 +7°C° 0 mm 6 m/s 731 mmHg 68%
    21:00 +5°C° 0 mm 6 m/s 731 mmHg 70%
    22:00 +6°C° 0 mm 5 m/s 732 mmHg 72%
    23:00 +6°C° 0 mm 5 m/s 732 mmHg 74%

    Mâine, 22 Aprilie, Duminică

    Timp Temperatura Precipitaţii Vânt Presiune Umiditate
    00:00 +5°C° 0 mm 5 m/s 732 mmHg 75%
    01:00 +5°C° 0 mm 5 m/s 733 mmHg 75%
    02:00 +5°C° 0 mm 5 m/s 733 mmHg 76%
    03:00 +5°C° 0,1 mm 5 m/s 733 mmHg 77%
    04:00 +5°C° 0,1 mm 5 m/s 733 mmHg 79%
    05:00 +5°C° 0,1 mm 5 m/s 733 mmHg 80%
    06:00 +5°C° 0,2 mm 5 m/s 734 mmHg 80%
    07:00 +5°C° 0,2 mm 5 m/s 734 mmHg 79%
    08:00 +5°C° 0,2 mm 5 m/s 734 mmHg 79%
    09:00 +5°C° 0,2 mm 5 m/s 734 mmHg 77%
    10:00 +5°C° 0,2 mm 5 m/s 735 mmHg 76%
    11:00 +5°C° 0,2 mm 5 m/s 735 mmHg 74%
    12:00 +6°C° 0,1 mm 5 m/s 735 mmHg 71%
    13:00 +6°C° 0,1 mm 5 m/s 736 mmHg 69%
    14:00 +6°C° 0,1 mm 5 m/s 736 mmHg 67%
    15:00 +6°C° 0 mm 5 m/s 736 mmHg 66%
    16:00 +6°C° 0 mm 4 m/s 737 mmHg 65%
    17:00 +5°C° 0 mm 4 m/s 737 mmHg 65%
    18:00 +4°C° 0 mm 3 m/s 738 mmHg 70%
    19:00 +3°C° 0 mm 3 m/s 738 mmHg 74%
    20:00 +3°C° 0 mm 2 m/s 739 mmHg 79%
    21:00 +2°C° 0 mm 2 m/s 739 mmHg 81%
    22:00 +1°C° 0 mm 2 m/s 739 mmHg 83%
    23:00 +1°C° 0 mm 1 m/s 740 mmHg 85%

    Poimâine, 23 Aprilie, Luni

    Timp Temperatura Precipitaţii Vânt Presiune Umiditate
    00:00 +1°C° 0 mm 1 m/s 740 mmHg 85%
    01:00 0°C° 0 mm 1 m/s 741 mmHg 85%
    02:00 -1°C° 0 mm 1 m/s 741 mmHg 84%
    03:00 -1°C° 0 mm 1 m/s 741 mmHg 83%
    04:00 -1°C° 0 mm 1 m/s 742 mmHg 82%
    05:00 -1°C° 0 mm 1 m/s 742 mmHg 80%
    06:00 -1°C° 0 mm 2 m/s 742 mmHg 70%
    07:00 +1°C° 0 mm 2 m/s 743 mmHg 60%
    08:00 +3°C° 0 mm 2 m/s 743 mmHg 50%
    09:00 +4°C° 0 mm 2 m/s 743 mmHg 44%
    10:00 +6°C° 0 mm 2 m/s 743 mmHg 39%
    11:00 +8°C° 0 mm 1 m/s 743 mmHg 34%
    12:00 +9°C° 0 mm 1 m/s 743 mmHg 33%
    13:00 +10°C° 0 mm 1 m/s 743 mmHg 31%
    14:00 +10°C° 0 mm 1 m/s 743 mmHg 30%
    15:00 +10°C° 0 mm 1 m/s 742 mmHg 31%
    16:00 +10°C° 0 mm 1 m/s 742 mmHg 32%
    17:00 +9°C° 0 mm 1 m/s 742 mmHg 34%
    18:00 +7°C° 0 mm 1 m/s 742 mmHg 39%
    19:00 +5°C° 0 mm 0 m/s 742 mmHg 45%
    20:00 +3°C° 0 mm 0 m/s 742 mmHg 51%
    21:00 +3°C° 0 mm 1 m/s 742 mmHg 53%
    22:00 +3°C° 0 mm 1 m/s 741 mmHg 55%
    23:00 +2°C° 0 mm 1 m/s 741 mmHg 57%

    24 Aprilie, Marţi

    Timp Temperatura Precipitaţii Vânt Presiune Umiditate
    00:00 +1°C° 0 mm 2 m/s 741 mmHg 58%
    01:00 +1°C° 0 mm 2 m/s 741 mmHg 60%
    02:00 +1°C° 0 mm 2 m/s 741 mmHg 61%
    03:00 +1°C° 0 mm 2 m/s 740 mmHg 60%
    04:00 +2°C° 0 mm 2 m/s 740 mmHg 60%
    05:00 +1°C° 0 mm 3 m/s 740 mmHg 60%
    06:00 +2°C° 0,2 mm 3 m/s 739 mmHg 61%
    07:00 +3°C° 0,2 mm 3 m/s 739 mmHg 62%
    08:00 +4°C° 0,2 mm 3 m/s 738 mmHg 63%
    09:00 +4°C° 0,3 mm 4 m/s 738 mmHg 66%
    10:00 +5°C° 0,3 mm 4 m/s 738 mmHg 70%
    11:00 +5°C° 0,3 mm 4 m/s 738 mmHg 73%
    12:00 +5°C° 0,2 mm 4 m/s 738 mmHg 75%
    13:00 +6°C° 0,2 mm 4 m/s 737 mmHg 78%
    14:00 +6°C° 0,2 mm 4 m/s 737 mmHg 80%
    15:00 +6°C° 0,3 mm 4 m/s 737 mmHg 83%
    16:00 +7°C° 0,3 mm 3 m/s 736 mmHg 85%
    17:00 +5°C° 0,3 mm 3 m/s 736 mmHg 88%
    18:00 +5°C° 0,1 mm 3 m/s 736 mmHg 90%
    19:00 +5°C° 0,1 mm 3 m/s 736 mmHg 92%
    20:00 +5°C° 0,1 mm 3 m/s 736 mmHg 94%
    21:00 +5°C° 0,1 mm 3 m/s 736 mmHg 95%
    22:00 +5°C° 0,1 mm 3 m/s 736 mmHg 95%
    23:00 +6°C° 0,1 mm 2 m/s 735 mmHg 96%

    25 Aprilie, Miercuri

    Timp Temperatura Precipitaţii Vânt Presiune Umiditate
    00:00 +5°C° 0 mm 2 m/s 735 mmHg 96%
    01:00 +5°C° 0 mm 2 m/s 735 mmHg 96%
    02:00 +4°C° 0 mm 2 m/s 735 mmHg 96%
    03:00 +4°C° 0 mm 2 m/s 735 mmHg 96%
    04:00 +3°C° 0 mm 2 m/s 735 mmHg 96%
    05:00 +3°C° 0 mm 2 m/s 734 mmHg 96%
    06:00 +3°C° 0,2 mm 3 m/s 734 mmHg 94%
    07:00 +4°C° 0,2 mm 4 m/s 734 mmHg 91%
    08:00 +5°C° 0,2 mm 4 m/s 734 mmHg 88%
    09:00 +6°C° 0,2 mm 4 m/s 733 mmHg 86%
    10:00 +7°C° 0,2 mm 5 m/s 733 mmHg 83%
    11:00 +8°C° 0,2 mm 5 m/s 733 mmHg 80%
    12:00 +9°C° 0,3 mm 5 m/s 733 mmHg 73%
    13:00 +10°C° 0,3 mm 6 m/s 733 mmHg 66%
    14:00 +11°C° 0,3 mm 6 m/s 733 mmHg 58%
    15:00 +10°C° 0,3 mm 5 m/s 733 mmHg 62%
    16:00 +9°C° 0,3 mm 5 m/s 732 mmHg 67%
    17:00 +8°C° 0,3 mm 4 m/s 732 mmHg 71%
    18:00 +8°C° 0,4 mm 3 m/s 732 mmHg 78%
    19:00 +7°C° 0,4 mm 2 m/s 732 mmHg 85%
    20:00 +6°C° 0,4 mm 2 m/s 732 mmHg 91%
    21:00 +6°C° 0,1 mm 2 m/s 732 mmHg 92%
    22:00 +6°C° 0,1 mm 2 m/s 733 mmHg 92%
    23:00 +4°C° 0,1 mm 3 m/s 733 mmHg 93%

    26 Aprilie, Joi

    Timp Temperatura Precipitaţii Vânt Presiune Umiditate
    00:00 +4°C° 0 mm 3 m/s 733 mmHg 93%
    01:00 +3°C° 0 mm 3 m/s 733 mmHg 94%
    02:00 +3°C° 0 mm 3 m/s 733 mmHg 94%
    03:00 +2°C° 0 mm 3 m/s 733 mmHg 95%
    04:00 +2°C° 0 mm 3 m/s 733 mmHg 95%
    05:00 +2°C° 0 mm 3 m/s 733 mmHg 96%
    06:00 +3°C° 0 mm 3 m/s 733 mmHg 92%
    07:00 +4°C° 0 mm 3 m/s 733 mmHg 88%
    08:00 +5°C° 0 mm 3 m/s 734 mmHg 83%
    09:00 +7°C° 0,1 mm 4 m/s 734 mmHg 77%
    10:00 +8°C° 0,1 mm 4 m/s 734 mmHg 70%
    11:00 +10°C° 0,1 mm 4 m/s 734 mmHg 64%
    12:00 +11°C° 0,4 mm 4 m/s 734 mmHg 62%
    13:00 +11°C° 0,4 mm 4 m/s 734 mmHg 60%
    14:00 +12°C° 0,4 mm 4 m/s 734 mmHg 58%
    15:00 +11°C° 0,2 mm 4 m/s 735 mmHg 59%
    16:00 +11°C° 0,2 mm 4 m/s 735 mmHg 61%
    17:00 +11°C° 0,2 mm 4 m/s 735 mmHg 62%
    18:00 +9°C° 0,2 mm 3 m/s 736 mmHg 69%
    19:00 +8°C° 0,2 mm 3 m/s 736 mmHg 76%
    20:00 +7°C° 0,2 mm 2 m/s 737 mmHg 83%
    21:00 +6°C° 0 mm 2 m/s 737 mmHg 85%
    22:00 +5°C° 0 mm 3 m/s 737 mmHg 87%
    23:00 +5°C° 0 mm 3 m/s 738 mmHg 89%
    Arată mai mult